TimeWET,TemperatureF,Dew PointF,Humidity,Sea Level PressureIn,VisibilityMPH,Wind Direction,Wind SpeedMPH,Gust SpeedMPH,PrecipitationIn,Events,Conditions,WindDirDegrees,DateUTC
12:00 AM,65,60,79,30.14,9,WSW,3.5,,,,Clear,240,2012-10-07 00:00:00
12:00 AM,64.4,60.8,88,30.18,-9999.0,WSW,3.5,-,N/A,,Clear,240,2012-10-07 00:00:00
1:00 AM,64.4,60.8,88,30.18,-9999.0,Calm,Calm,-,N/A,,Clear,0,2012-10-07 01:00:00
2:00 AM,62.6,59.0,88,30.18,-9999.0,Calm,Calm,-,N/A,,Clear,0,2012-10-07 02:00:00
3:00 AM,62,59,87,30.14,9,Calm,Calm,,,,Clear,,2012-10-07 03:00:00
3:00 AM,62.6,59.0,88,30.15,-9999.0,Calm,Calm,-,N/A,,Clear,0,2012-10-07 03:00:00
5:00 AM,60.8,59.0,94,30.18,-9999.0,Variable,2.3,-,N/A,,Clear,0,2012-10-07 05:00:00
6:00 AM,59.0,57.2,94,30.18,-9999.0,SW,3.5,-,N/A,,Clear,230,2012-10-07 06:00:00
7:00 AM,60.8,59.0,94,30.18,-9999.0,WSW,3.5,-,N/A,,Clear,240,2012-10-07 07:00:00
8:00 AM,68.0,66.2,94,30.21,-9999.0,Calm,Calm,-,N/A,,Clear,0,2012-10-07 08:00:00
9:00 AM,73,65,68,30.16,9,NNW,1.2,,,,Clear,330,2012-10-07 09:00:00
9:00 AM,73.4,64.4,73,30.21,-9999.0,Variable,1.2,-,N/A,,Clear,0,2012-10-07 09:00:00
11:00 AM,82.4,60.8,48,30.21,-9999.0,NNE,3.5,-,N/A,,Clear,30,2012-10-07 11:00:00
12:00 PM,87,60,31,30.09,9,NE,2.3,,,,Scattered Clouds,50,2012-10-07 12:00:00
12:00 PM,87.8,60.8,40,30.18,6.2,ENE,3.5,-,N/A,,Partly Cloudy,60,2012-10-07 12:00:00
1:00 PM,89.6,60.8,38,30.15,6.2,North,5.8,-,N/A,,Partly Cloudy,360,2012-10-07 13:00:00
2:00 PM,89.6,62.6,40,30.15,6.2,North,10.4,-,N/A,,Partly Cloudy,350,2012-10-07 14:00:00
3:00 PM,89,63,32,30.03,9,North,11.5,,,,Scattered Clouds,350,2012-10-07 15:00:00
3:00 PM,89.6,62.6,40,30.12,6.2,North,11.5,-,N/A,,Partly Cloudy,350,2012-10-07 15:00:00
4:00 PM,87.8,64.4,46,30.12,6.2,North,12.7,-,N/A,,Partly Cloudy,360,2012-10-07 16:00:00
5:00 PM,84.2,64.4,51,30.12,6.2,North,10.4,-,N/A,,Partly Cloudy,360,2012-10-07 17:00:00
6:00 PM,81,60,39,30.06,9,East,6.9,,,,Scattered Clouds,90,2012-10-07 18:00:00
6:00 PM,80.6,60.8,51,30.15,6.2,East,6.9,-,N/A,,Partly Cloudy,90,2012-10-07 18:00:00
7:00 PM,77.0,62.6,61,30.15,6.2,NE,2.3,-,N/A,,Partly Cloudy,40,2012-10-07 19:00:00
8:00 PM,75.2,62.6,65,30.18,-9999.0,NNW,3.5,-,N/A,,Clear,330,2012-10-07 20:00:00
9:00 PM,70,61,65,30.13,9,West,1.2,,,,,260,2012-10-07 21:00:00
9:00 PM,69.8,60.8,73,30.18,-9999.0,Variable,1.2,-,N/A,,Clear,0,2012-10-07 21:00:00
11:00 PM,68.0,64.4,88,30.18,-9999.0,NW,3.5,-,N/A,,Clear,310,2012-10-07 23:00:00